#timestamp,LO_Frequency,Hit,StdDev 
1608973215.1,286046998.1,N
1608973235.8,286046999.8,N
1608973255.7,286047000.2,N
1608973275.5,286047000.2,N
1608973295.3,286047000.1,N
1608973315.2,286047000.1,N
1608973335.9,286047000.7,N
1608973355.7,286047000.6,N
1608973375.6,286046999.7,N
1608973395.4,286046999.8,N
1608973415.2,286047002.1,N
1608973435.1,286047002.3,N
1608973436.0,286047002.3,N
1608973455.8,286047002.5,N
1608973475.6,286047002.0,N
1608973495.5,286047001.9,N
1608973515.3,286047001.9,N
1608973535.1,286047004.2,Y
1608973555.9,286047001.7,P
1608973575.7,286047001.6,P
1608973595.5,286047002.5,P
1608973615.4,286047002.4,Y
1608973635.2,286046998.1,P
1608973655.0,286046998.8,N
1608973655.9,286046998.8,N
1608973675.8,286047001.1,N
1608973695.6,286047002.8,N
1608973715.4,286047002.6,N
1608973735.3,286047002.0,N
1608973755.1,286047000.4,N
1608973756.0,286047000.4,N
1608973775.8,286047001.0,N
1608973795.7,286047000.6,N
1608973815.5,286047000.7,N
1608973835.3,286046998.2,N
1608973855.1,286046998.4,N
1608973875.9,286047000.7,N
1608973895.7,286047000.7,N
1608973915.5,286047000.7,N
1608973935.4,286047001.0,N
1608973955.2,286046998.1,N
1608973975.0,286046998.2,N
1608973975.9,286046998.2,N
1608973995.8,286047001.1,N
1608974015.6,286047000.0,N
1608974035.4,286047000.5,N
1608974055.3,286047001.0,N
1608974075.1,286046998.2,N
1608974095.8,286047001.1,N
1608974115.7,286046998.8,N
1608974135.5,286046999.3,N
1608974155.3,286046999.3,N
1608974175.2,286046998.1,N
1608974195.9,286046999.0,N
1608974215.7,286046999.1,N
1608974235.6,286046999.3,N
1608974255.4,286046998.8,N
1608974275.2,286046998.4,N
1608974295.1,286046999.6,N
1608974296.0,286046999.6,N
1608974315.8,286046997.1,N
1608974335.6,286046997.1,N
1608974355.5,286046997.2,N
1608974375.3,286046997.3,N
1608974395.1,286046997.0,N
1608974415.9,286046999.5,N
1608974435.7,286046996.7,N
1608974455.5,286046999.3,N
1608974475.3,286046999.5,N
1608974495.2,286046999.1,N
1608974515.0,286046999.0,N
1608974515.9,286046999.0,N
1608974535.7,286046999.0,N
1608974555.6,286046997.2,N
1608974575.4,286046997.1,N
1608974595.2,286046995.0,Y
1608974615.1,286046999.4,P
1608974616.0,286046999.4,N
1608974635.8,286046999.3,N
1608974655.6,286046997.4,Y
1608974675.5,286046998.3,P
1608974695.3,286046998.7,N
1608974715.1,286046999.5,N
1608974735.9,286046999.3,N
1608974755.7,286046998.3,Y
1608974775.5,286046999.8,P
1608974795.4,286046999.7,N
1608974815.2,286046999.9,N
1608974835.0,286047002.2,Y
1608974835.9,286047002.2,P
1608974855.8,286047000.4,N
1608974875.6,286047001.0,N
1608974895.4,286047000.8,N
1608974915.3,286047000.0,N
1608974935.1,286047000.8,N
1608974955.8,286047000.5,N
1608974975.7,286047000.3,N
1608974995.5,286047000.6,N
1608975015.3,286047000.6,N
1608975035.2,286046998.8,N
1608975055.9,286046999.0,N
1608975075.7,286046996.5,Y
1608975095.6,286046997.0,P
1608975115.4,286046997.2,N
1608975135.2,286046997.1,N
1608975155.1,286046996.6,N
1608975156.0,286046996.6,N
1608975175.8,286046999.5,N
1608975195.6,286046996.5,N
1608975215.5,286046996.9,N
1608975235.3,286046999.1,N
1608975255.1,286046997.7,N
1608975275.9,286046997.9,N
1608975295.7,286046995.3,Y
1608975315.5,286046999.1,P
1608975335.4,286046996.5,P
1608975355.2,286046999.6,N
1608975375.0,286046999.0,N
1608975375.9,286046999.0,N
1608975395.8,286046996.5,Y
1608975415.6,286046998.2,P
1608975435.4,286046999.4,P
1608975455.3,286046999.4,N
1608975475.1,286046999.5,N
1608975476.0,286046999.5,N
1608975495.8,286046998.9,N
1608975515.7,286046999.3,N
1608975535.5,286046996.6,Y
1608975555.3,286046998.9,P
1608975575.1,286046998.9,P
1608975595.9,286046998.6,P
1608975615.7,286046999.4,Y
1608975635.5,286047000.6,P
1608975655.4,286047000.1,N
1608975675.2,286046999.7,N
1608975695.0,286047000.0,N
1608975695.9,286047000.0,N
1608975715.8,286046998.1,Y
1608975735.6,286046998.5,P
1608975755.4,286047000.2,N
1608975775.3,286046999.0,N
1608975795.1,286046999.3,N
1608975815.8,286046998.7,N
1608975835.7,286047001.0,N
1608975855.5,286047000.9,N
1608975875.3,286047000.6,N
1608975895.2,286046998.9,N
1608975915.9,286047000.8,N
1608975935.7,286046998.2,N
1608975955.6,286047000.7,N
1608975975.4,286046998.9,N
1608975995.2,286047000.5,N
1608976015.1,286047000.5,N
1608976016.0,286047000.5,N
1608976035.8,286047000.0,N
1608976055.6,286047002.0,N
1608976075.5,286047001.6,N
1608976095.3,286047001.7,N
1608976115.1,286047002.5,N
1608976135.9,286047000.1,N
1608976155.7,286047000.4,N
1608976175.5,286047002.8,N
1608976195.4,286047000.0,N
1608976215.2,286046998.5,N
1608976235.0,286046998.6,N
1608976235.9,286046998.6,N
1608976255.7,286046999.9,N
1608976275.6,286047000.2,N
1608976295.4,286047002.5,N
1608976315.2,286046999.8,N
1608976335.1,286047002.2,N
1608976336.0,286047002.2,N
1608976355.8,286047002.4,N
1608976375.6,286047002.3,N
1608976395.5,286047002.7,N
1608976415.3,286047002.7,N
1608976435.1,286047002.8,N
1608976455.9,286046999.7,N
1608976475.7,286046999.7,N
1608976495.5,286047000.1,N
1608976515.4,286047002.6,N
1608976535.2,286047002.7,N
1608976555.0,286047001.5,N
1608976555.9,286047001.5,N
1608976575.8,286047002.0,N
1608976595.6,286047002.8,N
1608976615.4,286047002.7,N
1608976635.3,286047002.3,N
1608976655.1,286047002.4,N
1608976656.0,286047002.4,N
1608976675.8,286047002.8,N
1608976695.7,286046999.8,N
1608976715.5,286047000.4,N
1608976735.3,286047000.6,N
1608976755.2,286047000.5,N
1608976775.9,286047000.6,N
1608976795.7,286047000.3,N
